LRCV Weather Reports


Display with metric or nautical units.
time (UTC)temp
F
wind
direction
speed
MPH
gust
MPH
rain 1hr
in
rain 24hr
in
rain mn
in
humidity
%
barometer
mb
20260503211842 45 240 5.0 0.0 0.00 0.00 0.00 71 1020.0
20260503210341 45 240 5.0 0.0 0.00 0.00 0.00 71 1020.0
20260503204848 46 240 6.0 0.0 0.00 0.00 0.00 66 1020.0
20260503203501 46 240 6.0 0.0 0.00 0.00 0.00 66 1020.0
20260503201842 46 240 7.0 0.0 0.00 0.00 0.00 66 1020.0
20260503200351 46 240 7.0 0.0 0.00 0.00 0.00 66 1020.0
20260503194907 48 250 7.0 0.0 0.00 0.00 0.00 62 1020.0
20260503193503 48 250 7.0 0.0 0.00 0.00 0.00 62 1020.0
20260503191842 48 240 8.0 0.0 0.00 0.00 0.00 62 1020.0
20260503190341 48 240 8.0 0.0 0.00 0.00 0.00 62 1020.0
20260503185001 50 250 7.0 0.0 0.00 0.00 0.00 62 1020.0
20260503183341 50 250 7.0 0.0 0.00 0.00 0.00 62 1020.0
20260503181841 50 240 7.0 0.0 0.00 0.00 0.00 58 1020.0
20260503180341 50 240 7.0 0.0 0.00 0.00 0.00 58 1020.0
20260503174901 52 230 7.0 0.0 0.00 0.00 0.00 54 1020.0
20260503173406 52 230 7.0 0.0 0.00 0.00 0.00 54 1020.0
20260503171841 55 220 8.0 0.0 0.00 0.00 0.00 47 1019.0
20260503170342 55 220 8.0 0.0 0.00 0.00 0.00 47 1019.0
20260503150341 61 2.0 0.0 0.00 0.00 0.00 34 1020.0
20260503130342 57 180 6.0 0.0 0.00 0.00 0.00 39 1021.0
20260503110402 57 160 6.0 0.0 0.00 0.00 0.00 36 1022.0
20260503090402 55 120 7.0 0.0 0.00 0.00 0.00 41 1023.0
20260503080352 55 120 9.0 0.0 0.00 0.00 0.00 47 1023.0
20260503071840 52 70 7.0 0.0 0.00 0.00 0.00 62 1023.0
20260503070342 52 70 7.0 0.0 0.00 0.00 0.00 62 1023.0
20260503060341 48 50 7.0 0.0 0.00 0.00 0.00 71 1023.0
20260503054841 46 30 7.0 0.0 0.00 0.00 0.00 87 1023.0
20260503053341 46 30 7.0 0.0 0.00 0.00 0.00 87 1023.0
20260503051841 45 360 5.0 0.0 0.00 0.00 0.00 87 1023.0
20260503050341 45 360 5.0 0.0 0.00 0.00 0.00 87 1023.0
20260503044841 41 340 5.0 0.0 0.00 0.00 0.00 93 1022.0
20260503043342 41 340 5.0 0.0 0.00 0.00 0.00 93 1022.0
20260503041841 39 340 3.0 0.0 0.00 0.00 0.00 93 1022.0
20260503040404 39 340 3.0 0.0 0.00 0.00 0.00 93 1022.0
20260503034843 39 360 5.0 0.0 0.00 0.00 0.00 93 1022.0
20260503033341 39 360 5.0 0.0 0.00 0.00 0.00 93 1022.0
20260503031841 37 330 2.0 0.0 0.00 0.00 0.00 100 1022.0
20260503030341 37 330 2.0 0.0 0.00 0.00 0.00 100 1022.0
20260503024856 39 340 3.0 0.0 0.00 0.00 0.00 93 1022.0
20260503023342 39 340 3.0 0.0 0.00 0.00 0.00 93 1022.0
20260503021841 39 350 7.0 0.0 0.00 0.00 0.00 100 1022.0
20260503020341 39 350 7.0 0.0 0.00 0.00 0.00 100 1022.0
20260503014841 41 350 7.0 0.0 0.00 0.00 0.00 93 1022.0
20260503013341 41 350 7.0 0.0 0.00 0.00 0.00 93 1022.0
20260503011841 43 350 7.0 0.0 0.00 0.00 0.00 87 1022.0
20260503010342 43 350 7.0 0.0 0.00 0.00 0.00 87 1022.0
20260503004841 43 350 5.0 0.0 0.00 0.00 0.00 87 1022.0
20260503003341 43 350 5.0 0.0 0.00 0.00 0.00 87 1022.0
20260503001841 43 20 5.0 0.0 0.00 0.00 0.00 93 1022.0
20260503000341 43 20 5.0 0.0 0.00 0.00 0.00 93 1022.0
20260502234841 43 320 5.0 0.0 0.00 0.00 0.00 93 1022.0
20260502233341 43 320 5.0 0.0 0.00 0.00 0.00 93 1022.0
20260502231841 43 10 3.0 0.0 0.00 0.00 0.00 93 1023.0
20260502230342 43 10 3.0 0.0 0.00 0.00 0.00 93 1023.0
20260502224841 45 350 3.0 0.0 0.00 0.00 0.00 87 1023.0
20260502223341 45 350 3.0 0.0 0.00 0.00 0.00 87 1023.0
20260502221841 45 60 2.0 0.0 0.00 0.00 0.00 93 1023.0
20260502220341 45 60 2.0 0.0 0.00 0.00 0.00 93 1023.0
20260502214841 45 120 5.0 0.0 0.00 0.00 0.00 87 1023.0
20260502213342 45 120 5.0 0.0 0.00 0.00 0.00 87 1023.0